Zurück zum Katalog

COSMOS 2251 DEB

AktivLEO
NORAD 34784·DEBRIS·🇷🇺 Russia

Gestartet Jun 16, 1993 von Plesetsk Cosmodrome

Loading…

Nächste Überflüge (nächste 24 Stunden)

TLE

AktuellSource: Space-Track

Epoche: Sep 14, 2026, 03:32 UTC

1 34784U 93036AAM 26257.14784527  .00001051  00000-0  21269-3 0  9997
2 34784  74.0065 156.6671 0051166 256.3821 103.1644 14.61871309925586

Verfolge COSMOS 2251 DEB in Echtzeit mit AllMySat

Download on the App Store